ES'HAIL 2

Last updated on Sept. 24, 2020, 5:43 a.m. UTC

1 43700U 18090A   20267.54381653  .00000125  00000-0  00000-0 0  9992
2 43700   0.0161 225.2203 0001913 328.0293  31.1902  1.00273205  6698
UTC
Height (km)
Latitude
Longitude
Inclination
Orbital Period
UTC large
Height (km)
Speed (km/s)
/
Latitude / Longitude
Inclination (degrees)
Orbital Period (minutes)
Azimuth
Elevation
Range (km)
Doppler Factor
iOS Compass Heading
iOS Angle

Next 30 passes for location: Hong Kong

Rise time Rise Azimuth (degrees) Set time Set Azimuth (degrees) Duration Max altitude (degrees)

No matching passes for this satellites